Location: Unspecified
(44.0704°N, 88.6889°W)
Time: 14:39:58
(UTC+02:00)

Okean 3 - Pass Details

Date: 28 March 2019
Orbit: 576 x 602 km, 82.5° (Epoch: 23 April)

Event Time Altitude Azimuth Distance (km) Brightness Sun altitude
Exits shadow 10:07:48 10° 137° (SE) 1,919 6.1 -27.0°
Maximum altitude 10:11:01 22° 88° (E) 1,336 5.8 -26.5°
Drops below altitude 10° 10:14:20 10° 37° (NE) 1,954 7.0 -26.0°
Sets 10:16:56 0° 23° (NNE) 2,861 7.8 -25.6°
